Radiation Dose at Monitoring Post of Fukushima Daini Nuclear Power Station
Date,Time,MP-1(microSv/h),MP-2(microSv/h),MP-3(microSv/h),MP-4(microSv/h),MP-5(microSv/h),MP-6(microSv/h),MP-7(microSv/h),Wind Direction,Wind Velocity(m/s),Rain
2021/12/02,00:00,0.157,0.143,0.223,0.218,0.224,0.122,0.079,west-northwest,8.4,No
2021/12/02,00:10,0.156,0.143,0.223,0.219,0.225,0.122,0.078,west-northwest,8.6,No
2021/12/02,00:20,0.157,0.144,0.222,0.219,0.224,0.122,0.079,west,6.9,No
2021/12/02,00:30,0.156,0.142,0.222,0.219,0.224,0.122,0.078,west,6.0,No
2021/12/02,00:40,0.157,0.142,0.222,0.218,0.223,0.121,0.078,west,9.0,No
2021/12/02,00:50,0.156,0.143,0.224,0.219,0.224,0.122,0.077,west,7.7,No
2021/12/02,01:00,0.156,0.144,0.223,0.219,0.225,0.122,0.078,west-northwest,8.1,No
2021/12/02,01:10,0.156,0.143,0.222,0.219,0.224,0.122,0.078,west,7.9,No
2021/12/02,01:20,0.156,0.143,0.223,0.218,0.224,0.122,0.078,west-northwest,6.9,No
2021/12/02,01:30,0.156,0.142,0.222,0.217,0.225,0.122,0.078,west-northwest,5.9,No
2021/12/02,01:40,0.156,0.142,0.223,0.218,0.224,0.122,0.078,west-northwest,6.6,No
2021/12/02,01:50,0.157,0.143,0.222,0.218,0.224,0.121,0.077,west-northwest,5.8,No
2021/12/02,02:00,0.157,0.143,0.222,0.218,0.223,0.121,0.079,west,6.3,No
2021/12/02,02:10,0.157,0.142,0.221,0.217,0.223,0.121,0.078,west-northwest,6.5,No
2021/12/02,02:20,0.156,0.143,0.222,0.218,0.223,0.122,0.078,west,8.1,No
2021/12/02,02:30,0.156,0.141,0.223,0.218,0.224,0.122,0.077,west-northwest,7.4,No
2021/12/02,02:40,0.155,0.142,0.222,0.219,0.223,0.122,0.077,west,7.4,No
2021/12/02,02:50,0.155,0.142,0.222,0.219,0.223,0.121,0.077,west,4.7,No
2021/12/02,03:00,0.156,0.143,0.221,0.218,0.223,0.121,0.078,west-northwest,3.3,No
2021/12/02,03:10,0.156,0.143,0.222,0.218,0.223,0.121,0.078,west-northwest,5.9,No
2021/12/02,03:20,0.157,0.142,0.222,0.220,0.224,0.121,0.078,west-northwest,5.8,No
2021/12/02,03:30,0.156,0.143,0.223,0.219,0.224,0.121,0.077,west-northwest,5.3,No
2021/12/02,03:40,0.155,0.143,0.223,0.218,0.224,0.122,0.078,northwest,6.0,No
2021/12/02,03:50,0.157,0.142,0.221,0.219,0.223,0.122,0.077,west-northwest,4.7,No
2021/12/02,04:00,0.156,0.142,0.222,0.217,0.224,0.121,0.077,west-northwest,7.9,Yes
2021/12/02,04:10,0.156,0.142,0.222,0.219,0.224,0.121,0.077,west,5.9,Yes
2021/12/02,04:20,0.156,0.143,0.222,0.218,0.224,0.121,0.078,west-northwest,5.1,No
2021/12/02,04:30,0.155,0.142,0.222,0.218,0.223,0.122,0.078,west-northwest,7.4,No
2021/12/02,04:40,0.155,0.142,0.222,0.219,0.225,0.120,0.078,west-northwest,9.0,No
2021/12/02,04:50,0.157,0.143,0.222,0.218,0.224,0.121,0.078,west,4.4,No
2021/12/02,05:00,0.156,0.143,0.224,0.218,0.224,0.122,0.077,west-southwest,3.8,No
2021/12/02,05:10,0.156,0.142,0.222,0.217,0.224,0.121,0.078,west,5.2,No
2021/12/02,05:20,0.156,0.142,0.223,0.218,0.223,0.122,0.077,west-southwest,6.6,Yes
2021/12/02,05:30,0.157,0.142,0.222,0.219,0.224,0.122,0.078,west,6.2,Yes
2021/12/02,05:40,0.156,0.142,0.222,0.218,0.223,0.122,0.078,west-southwest,4.8,Yes
2021/12/02,05:50,0.156,0.143,0.223,0.219,0.224,0.123,0.078,west-southwest,4.7,Yes
2021/12/02,06:00,0.155,0.143,0.222,0.218,0.224,0.122,0.078,west-southwest,5.2,No
2021/12/02,06:10,0.156,0.142,0.223,0.219,0.224,0.122,0.078,west-southwest,4.4,No
2021/12/02,06:20,0.156,0.142,0.223,0.217,0.224,0.121,0.078,west-southwest,4.8,No
2021/12/02,06:30,0.156,0.143,0.222,0.218,0.223,0.122,0.077,west,6.1,No
2021/12/02,06:40,0.156,0.141,0.222,0.219,0.223,0.121,0.078,west,5.8,No
2021/12/02,06:50,0.156,0.141,0.223,0.219,0.224,0.122,0.078,west,5.1,No
2021/12/02,07:00,0.156,0.142,0.223,0.218,0.223,0.122,0.077,west-southwest,5.9,No
2021/12/02,07:10,0.156,0.142,0.223,0.218,0.223,0.122,0.078,west-southwest,6.0,No
2021/12/02,07:20,0.155,0.142,0.222,0.217,0.224,0.122,0.078,west-southwest,6.5,No
2021/12/02,07:30,0.156,0.142,0.221,0.217,0.223,0.122,0.078,west-southwest,5.2,No
2021/12/02,07:40,0.157,0.143,0.221,0.218,0.224,0.122,0.077,west-southwest,3.5,Yes
2021/12/02,07:50,0.157,0.142,0.222,0.218,0.222,0.122,0.077,west-southwest,1.9,No
2021/12/02,08:00,0.156,0.141,0.221,0.218,0.223,0.122,0.077,west-southwest,2.3,No
2021/12/02,08:10,0.157,0.142,0.222,0.217,0.224,0.121,0.077,west-southwest,1.5,No
2021/12/02,08:20,0.156,0.142,0.222,0.217,0.223,0.122,0.077,west-southwest,2.8,No
2021/12/02,08:30,0.155,0.142,0.222,0.217,0.223,0.121,0.077,west-southwest,5.3,No
2021/12/02,08:40,0.156,0.142,0.222,0.217,0.223,0.121,0.077,west,3.9,No
2021/12/02,08:50,0.157,0.141,0.222,0.217,0.224,0.122,0.078,west,3.3,No
2021/12/02,09:00,0.157,0.142,0.222,0.218,0.223,0.121,0.077,west,4.3,No
2021/12/02,09:10,0.155,0.142,0.221,0.218,0.224,0.122,0.077,west-northwest,7.6,No
2021/12/02,09:20,0.155,0.142,0.223,0.218,0.223,0.120,0.078,northwest,5.0,No
2021/12/02,09:30,0.156,0.142,0.222,0.218,0.223,0.122,0.077,west-northwest,6.7,No
2021/12/02,09:40,0.156,0.143,0.221,0.218,0.222,0.122,0.077,west-northwest,4.7,No
2021/12/02,09:50,0.155,0.141,0.222,0.217,0.225,0.122,0.078,west-northwest,6.2,No
2021/12/02,10:00,0.157,0.141,0.222,0.218,0.223,0.122,0.077,west-northwest,7.8,No
2021/12/02,10:10,0.156,0.142,0.222,0.217,0.224,0.122,0.077,west-northwest,5.7,No
2021/12/02,10:20,0.156,0.140,0.220,0.218,0.223,0.122,0.078,west-northwest,5.2,No
2021/12/02,10:30,0.155,0.142,0.221,0.219,0.223,0.122,0.078,west,6.8,No
2021/12/02,10:40,0.154,0.142,0.222,0.218,0.223,0.122,0.077,west,9.8,No
2021/12/02,10:50,0.155,0.141,0.222,0.218,0.222,0.122,0.077,west,9.8,No
2021/12/02,11:00,0.156,0.141,0.221,0.218,0.223,0.121,0.078,west,8.4,No
2021/12/02,11:10,0.155,0.142,0.223,0.217,0.224,0.121,0.077,west-northwest,5.5,No
2021/12/02,11:20,0.156,0.141,0.222,0.218,0.224,0.122,0.078,west-northwest,6.2,No
2021/12/02,11:30,0.155,0.142,0.222,0.216,0.223,0.121,0.077,northwest,5.5,No
2021/12/02,11:40,0.155,0.142,0.222,0.218,0.222,0.122,0.077,west-northwest,7.3,No
2021/12/02,11:50,0.156,0.142,0.222,0.218,0.226,0.121,0.077,northwest,5.6,No
2021/12/02,12:00,0.156,0.143,0.223,0.217,0.223,0.121,0.077,northwest,4.9,No
2021/12/02,12:10,0.156,0.141,0.222,0.218,0.224,0.121,0.077,west-northwest,4.6,No
2021/12/02,12:20,0.157,0.142,0.221,0.217,0.223,0.122,0.077,west-northwest,7.5,No
2021/12/02,12:30,0.156,0.142,0.223,0.219,0.225,0.121,0.078,west-northwest,5.2,No
2021/12/02,12:40,0.156,0.142,0.222,0.218,0.223,0.121,0.077,west-northwest,6.8,No
2021/12/02,12:50,0.156,0.142,0.223,0.219,0.224,0.121,0.078,west-northwest,7.8,No
2021/12/02,13:00,0.156,0.143,0.223,0.219,0.225,0.121,0.077,west-northwest,7.5,No
2021/12/02,13:10,0.158,0.143,0.222,0.219,0.224,0.122,0.077,west-northwest,7.6,No
2021/12/02,13:20,0.156,0.142,0.223,0.218,0.224,0.122,0.077,northwest,8.5,No
2021/12/02,13:30,0.156,0.143,0.222,0.219,0.225,0.121,0.078,west-northwest,6.2,No
2021/12/02,13:40,0.156,0.142,0.222,0.218,0.225,0.123,0.077,northwest,5.6,No
2021/12/02,13:50,0.157,0.142,0.222,0.218,0.225,0.120,0.077,northwest,5.9,No
2021/12/02,14:00,0.156,0.142,0.222,0.219,0.224,0.122,0.078,west-northwest,4.9,No
2021/12/02,14:10,0.156,0.142,0.224,0.217,0.223,0.123,0.077,west-northwest,7.0,No
2021/12/02,14:20,0.155,0.143,0.223,0.218,0.224,0.121,0.078,west-northwest,5.8,No
2021/12/02,14:30,0.156,0.142,0.223,0.219,0.225,0.121,0.077,west-northwest,5.3,No
2021/12/02,14:40,0.157,0.142,0.223,0.219,0.225,0.121,0.077,west-northwest,6.7,No
2021/12/02,14:50,0.157,0.142,0.224,0.218,0.224,0.121,0.077,west,6.4,No
2021/12/02,15:00,0.156,0.142,0.223,0.217,0.224,0.121,0.077,west-northwest,5.9,No
2021/12/02,15:10,0.155,0.142,0.223,0.220,0.224,0.121,0.078,west-northwest,5.7,No
2021/12/02,15:20,0.156,0.144,0.224,0.219,0.225,0.121,0.077,west,6.4,No
2021/12/02,15:30,0.157,0.143,0.224,0.218,0.224,0.121,0.078,west-northwest,3.2,No
2021/12/02,15:40,0.156,0.142,0.223,0.219,0.224,0.122,0.077,west-northwest,1.6,No
2021/12/02,15:50,0.156,0.142,0.223,0.219,0.224,0.121,0.077,west,2.3,No
2021/12/02,16:00,0.156,0.143,0.223,0.218,0.223,0.122,0.078,west,4.6,No
2021/12/02,16:10,0.156,0.143,0.223,0.219,0.225,0.122,0.077,west-southwest,4.6,No
2021/12/02,16:20,0.157,0.143,0.224,0.219,0.224,0.123,0.078,west,4.8,No
2021/12/02,16:30,0.156,0.142,0.223,0.220,0.224,0.122,0.078,west-northwest,4.8,No
2021/12/02,16:40,0.156,0.143,0.222,0.219,0.223,0.122,0.077,west-northwest,5.8,No
2021/12/02,16:50,0.156,0.143,0.224,0.219,0.224,0.123,0.077,west-northwest,5.3,No
2021/12/02,17:00,0.156,0.142,0.223,0.219,0.223,0.122,0.078,west-northwest,3.5,No
2021/12/02,17:10,0.156,0.142,0.223,0.219,0.224,0.122,0.078,west-northwest,4.3,No
2021/12/02,17:20,0.156,0.142,0.223,0.218,0.225,0.123,0.078,west-northwest,2.6,No
2021/12/02,17:30,0.157,0.143,0.222,0.219,0.224,0.122,0.078,west-southwest,2.8,No
2021/12/02,17:40,0.155,0.144,0.224,0.219,0.224,0.122,0.077,west-southwest,3.6,No
2021/12/02,17:50,0.156,0.143,0.223,0.219,0.223,0.122,0.077,west-southwest,4.0,No
2021/12/02,18:00,0.156,0.143,0.224,0.218,0.224,0.121,0.077,west-southwest,4.1,No
2021/12/02,18:10,0.156,0.142,0.223,0.219,0.224,0.122,0.078,west-southwest,4.7,No
2021/12/02,18:20,0.156,0.142,0.223,0.218,0.223,0.122,0.077,west,5.5,No
2021/12/02,18:30,0.155,0.142,0.224,0.220,0.224,0.122,0.078,west,5.7,No
2021/12/02,18:40,0.156,0.143,0.223,0.219,0.223,0.122,0.078,west,5.5,No
2021/12/02,18:50,0.156,0.142,0.223,0.219,0.223,0.122,0.078,west,5.3,No
2021/12/02,19:00,0.157,0.142,0.223,0.219,0.223,0.121,0.078,west,4.4,No
2021/12/02,19:10,0.157,0.142,0.222,0.220,0.225,0.122,0.078,west,4.0,No
2021/12/02,19:20,0.157,0.142,0.223,0.219,0.224,0.122,0.078,west-southwest,4.6,No
2021/12/02,19:30,0.156,0.142,0.224,0.219,0.223,0.122,0.078,west-southwest,4.7,No
2021/12/02,19:40,0.157,0.142,0.223,0.219,0.223,0.123,0.077,southwest,4.1,No
2021/12/02,19:50,0.156,0.143,0.223,0.218,0.224,0.122,0.078,southwest,3.5,No
2021/12/02,20:00,0.156,0.143,0.224,0.218,0.224,0.122,0.078,south-southwest,3.7,No
2021/12/02,20:10,0.156,0.142,0.225,0.219,0.224,0.121,0.077,south,4.6,No
2021/12/02,20:20,0.157,0.141,0.223,0.219,0.224,0.122,0.078,south,4.8,No
2021/12/02,20:30,0.157,0.143,0.223,0.220,0.225,0.122,0.077,south,4.7,No
2021/12/02,20:40,0.157,0.141,0.223,0.219,0.224,0.121,0.078,south,4.4,No
2021/12/02,20:50,0.156,0.143,0.224,0.220,0.224,0.122,0.078,south,4.1,No
2021/12/02,21:00,0.157,0.142,0.224,0.220,0.225,0.123,0.077,south,3.4,No
2021/12/02,21:10,0.156,0.143,0.225,0.219,0.225,0.122,0.079,south,3.2,No
2021/12/02,21:20,0.156,0.143,0.223,0.217,0.225,0.122,0.078,south,2.3,No
2021/12/02,21:30,0.156,0.142,0.223,0.220,0.224,0.122,0.078,south-southwest,2.3,No
2021/12/02,21:40,0.156,0.142,0.223,0.218,0.225,0.122,0.078,southwest,2.1,No
2021/12/02,21:50,0.156,0.142,0.223,0.220,0.225,0.122,0.078,south-southwest,2.3,No
2021/12/02,22:00,0.156,0.142,0.224,0.219,0.225,0.122,0.079,south-southwest,3.1,No
2021/12/02,22:10,0.156,0.142,0.224,0.219,0.223,0.122,0.079,south,3.3,No
2021/12/02,22:20,0.158,0.143,0.224,0.219,0.225,0.122,0.079,south,3.7,No
2021/12/02,22:30,0.157,0.143,0.223,0.221,0.223,0.122,0.078,south,4.3,No
2021/12/02,22:40,0.157,0.143,0.224,0.218,0.223,0.122,0.078,south-southwest,4.9,No
2021/12/02,22:50,0.157,0.142,0.224,0.219,0.224,0.123,0.079,south-southwest,5.3,No
2021/12/02,23:00,0.157,0.142,0.223,0.220,0.224,0.122,0.078,south-southwest,6.2,No
2021/12/02,23:10,0.157,0.144,0.223,0.220,0.224,0.122,0.078,south-southwest,5.4,No
2021/12/02,23:20,0.157,0.143,0.223,0.220,0.224,0.123,0.078,south-southwest,5.8,No
2021/12/02,23:30,0.157,0.142,0.224,0.218,0.225,0.121,0.079,south-southwest,5.2,No
2021/12/02,23:40,0.157,0.143,0.223,0.219,0.224,0.122,0.078,southwest,4.4,No
2021/12/02,23:50,0.156,0.143,0.223,0.219,0.223,0.122,0.078,southwest,5.4,No
